Location: *
(45.9500°N, 9.0833°E)
Time: 20:55:19
(UTC+00:00)

Vanguard 2 Rocket - Pass Details

Date: 14 June 2021
Orbit: 555 x 3325 km, 32.9° (Epoch: 30 July)

Event Time Altitude Azimuth Distance (km) Brightness Sun altitude
Rises 02:02:17 0° 266° (W) 4,851 10.2 -12.0°
Enters shadow 02:06:32 - 251° (WSW) 3,628 9.5 -11.6°
Reaches altitude 10° 02:08:35 10° 239° (WSW) 3,135 - -11.4°
Maximum altitude 02:10:54 12° 221° (SW) 2,754 - -11.1°
Drops below altitude 10° 02:12:56 10° 201° (SSW) 2,647 - -10.9°
Exits shadow 02:16:01 - 174° (S) 2,965 9.1 -10.5°
Sets 02:17:00 0° 168° (SSE) 3,169 9.3 -10.4°
